This is the latest recevied weather packets stored in our database for station/object N8AMF. If no packets are shown the sender has not sent any weather packets the latest 10 day(s).
| Time | Temp. | Humidity | Pressure | Rain* | Wind** | Luminosity | Snow |
|---|---|---|---|---|---|---|---|
| 1777981513 | 16.67° C | 71% | 1003.6 hPa | 0 mm | - | 55 W/m² | - |
| 1777981209 | 16.11° C | 72% | 1003.4 hPa | 0 mm | - | 55 W/m² | - |
| 1777980906 | 16.67° C | 71% | 1002.9 hPa | 0 mm | - | 52 W/m² | - |
| 1777980601 | 16.67° C | 71% | 1003.1 hPa | 0 mm | - | 39 W/m² | - |
| 1777980299 | 16.67° C | 70% | 1003.1 hPa | 0 mm | - | 29 W/m² | - |
| 1777979996 | 16.67° C | 70% | 1003 hPa | 0 mm | - | 27 W/m² | - |
| 1777979696 | 16.67° C | 70% | 1002.9 hPa | 0 mm | - | 26 W/m² | - |
| 1777979392 | 16.67° C | 69% | 1003.2 hPa | 0 mm | - | 25 W/m² | - |
| 1777979089 | 16.67° C | 69% | 1003.1 hPa | 0 mm | - | 23 W/m² | - |
| 1777978786 | 16.67° C | 68% | 1003 hPa | 0 mm | - | 19 W/m² | - |
| 1777978483 | 17.22° C | 68% | 1002.9 hPa | 0 mm | - | 16 W/m² | - |
| 1777978178 | 16.67° C | 68% | 1003 hPa | 0 mm | - | 13 W/m² | - |
| 1777977876 | 16.67° C | 68% | 1003.2 hPa | 0 mm | - | 10 W/m² | - |
| 1777977572 | 17.22° C | 68% | 1003.3 hPa | 0 mm | - | 7 W/m² | - |
| 1777977270 | 17.22° C | 69% | 1003.1 hPa | 0 mm | - | 4 W/m² | - |
| 1777976967 | 16.67° C | 70% | 1002.9 hPa | 0 mm | - | 3 W/m² | - |
| 1777976664 | 16.67° C | 71% | 1002.9 hPa | 0 mm | - | 2 W/m² | - |
| 1777976360 | 17.22° C | 71% | 1003 hPa | 0 mm | - | 1 W/m² | - |
| 1777976055 | 17.22° C | 72% | 1003.1 hPa | 0 mm | - | 1 W/m² | - |
| 1777975751 | 17.78° C | 70% | 1003 hPa | 0 mm | - | 0 W/m² | - |
| 1777975448 | 17.78° C | 67% | 1003.1 hPa | 0 mm | - | 0 W/m² | - |
| 1777975143 | 17.78° C | 65% | 1002.9 hPa | 0 mm | - | 0 W/m² | - |
| 1777974841 | 18.33° C | 64% | 1002.9 hPa | 0 mm | - | 0 W/m² | - |
| 1777974537 | 18.33° C | 65% | 1002.5 hPa | 0 mm | - | 0 W/m² | - |
| 1777974234 | 18.33° C | 64% | 1002.5 hPa | 0 mm | - | 0 W/m² | - |
* Rain latest hour (hover to see other rain measurements)
** Current wind speed in m/s (hover to see current wind gust speed)